GW6479 Weather Reports


Display with metric or nautical units.
time (UTC)temp
F
wind
direction
speed
MPH
gust
MPH
rain 1hr
in
rain 24hr
in
rain mn
in
humidity
%
barometer
mb
20260906073030 76 24 8.0 28.0 0.00 0.00 0.00 86 1013.6
20260906072350 78 43 9.0 19.0 0.00 0.00 0.00 80 1013.6
20260906071711 78 50 8.0 19.0 0.00 0.00 0.00 80 1013.3
20260906071242 77 10 8.0 15.0 0.00 0.00 0.00 82 1013.5
20260906070603 77 80 3.0 8.0 0.00 0.00 0.00 81 1012.8
20260906065711 78 88 4.0 6.0 0.00 0.00 0.00 79 1013.0
20260906065031 78 51 2.0 10.0 0.00 0.00 0.00 76 1013.0
20260906064350 78 8 4.0 10.0 0.00 0.00 0.00 77 1013.0
20260906063710 78 32 4.0 10.0 0.00 0.00 0.00 80 1013.1
20260906063030 77 41 6.0 11.0 0.00 0.00 0.00 83 1012.9
20260906062350 78 125 5.0 9.0 0.00 0.00 0.00 83 1012.7
20260906061710 79 143 4.0 8.0 0.00 0.00 0.00 79 1012.6
20260906061030 79 113 5.0 9.0 0.00 0.00 0.00 83 1012.8
20260906060603 77 173 6.0 9.0 0.00 0.00 0.00 88 1013.0
20260906055711 78 219 3.0 5.0 0.00 0.00 0.00 92 1012.9
20260906055239 78 290 2.0 5.0 0.00 0.00 0.00 91 1013.0
20260906054350 77 51 2.0 3.0 0.00 0.00 0.00 92 1013.1
20260906053710 78 301 1.0 12.0 0.00 0.00 0.00 91 1012.8
20260906053030 77 28 5.0 12.0 0.00 0.00 0.00 94 1013.0
20260906052350 77 32 4.0 7.0 0.00 0.00 0.00 92 1012.8
20260906051710 77 205 2.0 4.0 0.00 0.00 0.00 92 1012.6
20260906051031 77 221 3.0 5.0 0.00 0.00 0.00 93 1012.5
20260906050350 77 228 3.0 6.0 0.00 0.00 0.00 96 1012.4
20260906045710 76 222 3.0 5.0 0.00 0.00 0.24 95 1012.4
20260906045030 77 213 2.0 2.0 0.00 0.00 0.24 92 1012.5
20260906044350 77 45 1.0 3.0 0.00 0.00 0.24 93 1012.5
20260906043710 76 26 1.0 2.0 0.00 0.00 0.24 95 1012.6
20260906043242 76 5 1.0 3.0 0.00 0.00 0.24 98 1012.7
20260906042350 75 332 1.0 3.0 0.00 0.00 0.24 98 1012.7
20260906041710 76 325 1.0 2.0 0.00 0.00 0.24 97 1012.7
20260906041030 76 317 1.0 2.0 0.00 0.00 0.24 95 1012.7
20260906040350 77 334 1.0 1.0 0.00 0.00 0.24 92 1012.8
20260906035710 78 217 1.0 1.0 0.00 0.00 0.24 90 1012.8
20260906035241 77 320 1.0 2.0 0.00 0.00 0.24 92 1012.9
20260906034350 77 247 1.0 2.0 0.00 0.00 0.24 92 1012.8
20260906033712 77 201 1.0 2.0 0.00 0.00 0.24 92 1012.8
20260906032351 77 38 1.0 2.0 0.00 0.00 0.24 94 1012.7
20260906031711 76 233 1.0 3.0 0.00 0.00 0.24 97 1012.5
20260906031031 75 277 1.0 3.0 0.00 0.00 0.24 99 1012.5
20260906030350 75 292 1.0 2.0 0.00 0.00 0.24 100 1012.6
20260906025710 75 289 1.0 3.0 0.00 0.00 0.24 100 1012.6
20260906025030 75 295 2.0 3.0 0.00 0.00 0.24 100 1012.7
20260906024350 75 348 2.0 4.0 0.00 0.00 0.24 100 1012.5
20260906023711 75 7 2.0 4.0 0.00 0.00 0.24 100 1012.4
20260906023243 75 329 1.0 3.0 0.00 0.00 0.24 100 1012.2
20260906022351 75 246 2.0 3.0 0.00 0.00 0.24 100 1012.2
20260906021710 75 287 2.0 2.0 0.00 0.00 0.24 100 1012.0
20260906021030 75 147 1.0 3.0 0.00 0.00 0.24 100 1012.0
20260906020350 75 172 2.0 3.0 0.00 0.00 0.24 100 1012.0
20260906015710 75 194 1.0 2.0 0.00 0.00 0.24 100 1011.9
20260906015242 75 0 0.0 3.0 0.00 0.00 0.24 100 1011.9
20260906014350 75 14 1.0 3.0 0.00 0.00 0.24 100 1011.7
20260906013923 74 294 2.0 3.0 0.00 0.00 0.24 100 1011.6
20260906013030 74 296 1.0 3.0 0.00 0.00 0.24 100 1011.6
20260906012350 74 316 2.0 4.0 0.00 0.00 0.24 100 1011.5
20260906011710 74 295 2.0 4.0 0.00 0.00 0.24 100 1011.4
20260906011031 74 325 3.0 4.0 0.00 0.00 0.24 100 1011.4
20260906010350 75 242 1.0 7.0 0.00 0.00 0.24 100 1011.3
20260906005030 75 196 1.0 9.0 0.00 0.00 0.24 100 1011.1
20260906003710 74 23 2.0 5.0 0.00 0.00 0.24 100 1011.1
20260906003030 74 256 3.0 6.0 0.00 0.00 0.24 100 1011.1
20260906002350 74 233 2.0 7.0 0.00 0.00 0.24 100 1011.2
20260906001921 74 234 2.0 5.0 0.00 0.00 0.24 99 1011.5
20260906001030 74 121 2.0 15.0 0.00 0.00 0.24 97 1011.7
20260906000350 76 242 5.0 38.0 0.00 0.00 0.23 79 1011.9
20260905235710 83 301 13.0 39.0 0.00 0.00 0.17 61 1012.2
20260905235030 78 341 21.0 39.0 0.00 0.00 0.07 83 1012.1
20260905234350 87 343 17.0 33.0 0.00 0.00 0.00 60 1011.7
20260905233710 89 58 2.0 4.0 0.00 0.00 0.00 55 1011.3
20260905233031 89 114 2.0 5.0 0.00 0.00 0.00 54 1011.2
20260905232350 90 111 4.0 6.0 0.00 0.00 0.00 53 1011.1
20260905231921 91 153 4.0 8.0 0.00 0.00 0.00 50 1010.9
20260905231030 91 120 3.0 8.0 0.00 0.00 0.00 49 1011.0
20260905230350 91 157 4.0 9.0 0.00 0.00 0.00 49 1010.9
20260905225710 92 162 5.0 10.0 0.00 0.00 0.00 49 1010.8
20260905225244 92 137 7.0 13.0 0.00 0.00 0.00 49 1010.8
20260905224351 93 139 10.0 17.0 0.00 0.00 0.00 48 1010.8
20260905223711 95 141 12.0 17.0 0.00 0.00 0.00 45 1010.8
20260905223030 98 71 4.0 7.0 0.00 0.00 0.00 42 1010.7
20260905221710 99 17 2.0 9.0 0.00 0.00 0.00 41 1010.7
20260905221030 98 332 5.0 10.0 0.00 0.00 0.00 39 1010.7
20260905220603 98 327 5.0 12.0 0.00 0.00 0.00 39 1010.8
20260905215710 98 359 7.0 12.0 0.00 0.00 0.00 41 1010.7
20260905215031 98 307 4.0 10.0 0.00 0.00 0.00 39 1010.8
20260905214350 100 255 2.0 6.0 0.00 0.00 0.00 35 1010.8
20260905213710 99 307 3.0 7.0 0.00 0.00 0.00 37 1010.8
20260905213031 99 30 2.0 9.0 0.00 0.00 0.00 39 1010.9
20260905212350 98 358 5.0 9.0 0.00 0.00 0.00 38 1010.8
20260905211710 100 298 5.0 7.0 0.00 0.00 0.00 37 1010.8
20260905211243 101 28 2.0 8.0 0.00 0.00 0.00 36 1010.8
20260905210350 100 291 5.0 8.0 0.00 0.00 0.00 36 1010.7
20260905205710 99 315 5.0 7.0 0.00 0.00 0.00 35 1010.8
20260905205031 100 322 3.0 9.0 0.00 0.00 0.00 36 1011.0
20260905204350 98 310 4.0 9.0 0.00 0.00 0.00 38 1011.2
20260905203711 99 303 4.0 9.0 0.00 0.00 0.00 38 1011.1
20260905203030 98 323 5.0 9.0 0.00 0.00 0.00 39 1011.2
20260905202350 99 321 5.0 9.0 0.00 0.00 0.00 36 1011.3
20260905201710 98 138 4.0 9.0 0.00 0.00 0.00 38 1011.3
20260905201030 97 9 4.0 9.0 0.00 0.00 0.00 40 1011.6
20260905200350 98 353 5.0 13.0 0.00 0.00 0.00 40 1011.7
20260905195920 97 5 6.0 13.0 0.00 0.00 0.00 40 1011.9
20260905195030 97 48 2.0 6.0 0.00 0.00 0.00 42 1011.9
20260905194351 98 277 2.0 8.0 0.00 0.00 0.00 40 1012.1
20260905193030 98 49 3.0 11.0 0.00 0.00 0.00 39 1012.1
20260905192350 97 344 7.0 12.0 0.00 0.00 0.00 43 1012.2
20260905191710 97 314 7.0 11.0 0.00 0.00 0.00 43 1012.2
20260905191031 98 275 5.0 9.0 0.00 0.00 0.00 43 1012.4
20260905190350 97 291 5.0 8.0 0.00 0.00 0.00 42 1012.6
20260905185710 96 80 4.0 8.0 0.00 0.00 0.00 42 1012.8
20260905185030 97 57 4.0 9.0 0.00 0.00 0.00 42 1012.7
20260905184350 97 83 5.0 9.0 0.00 0.00 0.00 43 1012.9
20260905183923 97 273 4.0 9.0 0.00 0.00 0.00 44 1012.9
20260905183030 96 337 4.0 9.0 0.00 0.00 0.00 44 1013.0
20260905182350 97 45 3.0 9.0 0.00 0.00 0.00 43 1013.1
20260905181710 97 360 3.0 9.0 0.00 0.00 0.00 44 1013.2
20260905181030 95 336 6.0 11.0 0.00 0.00 0.00 46 1013.2
20260905180350 95 333 5.0 11.0 0.00 0.00 0.00 47 1013.2
20260905175710 97 13 4.0 9.0 0.00 0.00 0.00 46 1013.4
20260905175030 96 228 4.0 10.0 0.00 0.00 0.00 48 1013.4
20260905174351 96 345 5.0 10.0 0.00 0.00 0.00 47 1013.4
20260905173710 95 182 2.0 10.0 0.00 0.00 0.00 48 1013.5
20260905173030 94 35 5.0 11.0 0.00 0.00 0.00 50 1013.6
20260905172605 93 293 5.0 11.0 0.00 0.00 0.00 51 1013.7
20260905171920 94 318 5.0 10.0 0.00 0.00 0.00 50 1013.8
20260905171030 94 310 2.0 10.0 0.00 0.00 0.00 51 1013.8
20260905170350 94 300 4.0 14.0 0.00 0.00 0.00 50 1013.8
20260905165710 93 328 6.0 14.0 0.00 0.00 0.00 53 1013.7
20260905165243 94 326 4.0 8.0 0.00 0.00 0.00 51 1014.0
20260905164351 94 358 5.0 8.0 0.00 0.00 0.00 52 1014.1
20260905163710 94 308 3.0 10.0 0.00 0.00 0.00 54 1014.3
20260905163030 93 79 3.0 9.0 0.00 0.00 0.00 54 1014.4
20260905162600 92 353 6.0 9.0 0.00 0.00 0.00 55 1014.4
20260905161921 92 288 3.0 8.0 0.00 0.00 0.00 55 1014.5
20260905161030 92 17 5.0 8.0 0.00 0.00 0.00 55 1014.6
20260905160351 94 300 3.0 6.0 0.00 0.00 0.00 55 1014.7
20260905155712 92 48 4.0 6.0 0.00 0.00 0.00 57 1014.7
20260905155030 93 59 3.0 8.0 0.00 0.00 0.00 55 1014.9
20260905154351 91 339 2.0 8.0 0.00 0.00 0.00 59 1014.8
20260905153711 90 314 3.0 8.0 0.00 0.00 0.00 59 1014.8
20260905153240 90 327 1.0 6.0 0.00 0.00 0.00 62 1014.8
20260905152601 89 298 2.0 6.0 0.00 0.00 0.00 64 1014.9
20260905151710 89 245 3.0 6.0 0.00 0.00 0.00 65 1015.0
20260905151242 91 301 2.0 5.0 0.00 0.00 0.00 62 1014.9
20260905150350 89 329 2.0 5.0 0.00 0.00 0.00 65 1014.9
20260905145710 89 287 2.0 4.0 0.00 0.00 0.00 65 1014.8
20260905145244 88 50 1.0 5.0 0.00 0.00 0.00 68 1014.8
20260905144350 89 326 3.0 5.0 0.00 0.00 0.00 66 1014.9
20260905143710 88 89 1.0 4.0 0.00 0.00 0.00 68 1014.8
20260905143031 86 240 1.0 5.0 0.00 0.00 0.00 72 1015.0
20260905142350 87 235 2.0 5.0 0.00 0.00 0.00 70 1015.0
20260905141711 86 177 2.0 4.0 0.00 0.00 0.00 72 1015.1
20260905141030 86 188 2.0 4.0 0.00 0.00 0.00 71 1015.1
20260905140350 86 182 2.0 3.0 0.00 0.00 0.00 72 1015.2
20260905135924 85 261 2.0 4.0 0.00 0.00 0.00 72 1015.3
20260905135030 84 290 2.0 4.0 0.00 0.00 0.00 75 1015.3
20260905133710 83 210 1.0 3.0 0.00 0.00 0.00 76 1015.4
20260905133031 83 212 1.0 3.0 0.00 0.00 0.00 77 1015.4
20260905132350 82 186 1.0 3.0 0.00 0.00 0.00 79 1015.4
20260905131711 82 193 1.0 3.0 0.00 0.00 0.00 80 1015.4
20260905131030 83 193 1.0 2.0 0.00 0.00 0.00 79 1015.4
20260905130604 81 216 1.0 3.0 0.00 0.00 0.00 81 1015.4
20260905125710 81 171 2.0 3.0 0.00 0.00 0.00 82 1015.4
20260905125031 81 189 1.0 3.0 0.00 0.00 0.00 83 1015.5
20260905124350 79 349 0.0 2.0 0.00 0.00 0.00 88 1015.5
20260905123710 79 359 1.0 2.0 0.00 0.00 0.00 87 1015.5
20260905123030 78 67 2.0 2.0 0.00 0.00 0.00 87 1015.4
20260905121710 77 360 1.0 1.0 0.00 0.00 0.00 91 1015.3
20260905121031 77 359 0.0 2.0 0.00 0.00 0.00 90 1015.2
20260905120605 76 178 1.0 3.0 0.00 0.00 0.00 93 1015.1
20260905115030 77 198 1.0 3.0 0.00 0.00 0.00 92 1014.9
20260905114350 77 142 1.0 2.0 0.00 0.00 0.00 90 1014.9
20260905113922 77 2 0.0 2.0 0.00 0.00 0.00 89 1014.8
20260905111710 75 161 1.0 2.0 0.00 0.00 0.00 94 1014.5
20260905111245 77 143 1.0 1.0 0.00 0.00 0.00 86 1014.4
20260905110350 77 355 1.0 1.0 0.00 0.00 0.00 88 1014.2
20260905105921 76 197 1.0 1.0 0.00 0.00 0.00 89 1014.3
20260905105030 76 329 1.0 1.0 0.00 0.00 0.00 86 1014.3
20260905104602 77 0 0.0 1.0 0.00 0.00 0.00 86 1014.1
20260905103710 77 360 0.0 1.0 0.00 0.00 0.00 85 1014.2
20260905103243 76 0 0.0 2.0 0.00 0.00 0.00 91 1014.0
20260905102604 77 326 1.0 2.0 0.00 0.00 0.00 87 1013.9
20260905101711 77 346 1.0 1.0 0.00 0.00 0.00 89 1013.9
20260905101030 76 360 0.0 2.0 0.00 0.00 0.00 92 1013.8
20260905100351 75 0 0.0 1.0 0.00 0.00 0.00 96 1013.8
20260905095711 74 322 1.0 2.0 0.00 0.00 0.00 98 1013.8
20260905095030 74 317 2.0 2.0 0.00 0.00 0.00 96 1013.9
20260905094350 75 250 2.0 2.0 0.00 0.00 0.00 97 1014.0
20260905093710 75 278 1.0 2.0 0.00 0.00 0.00 95 1013.8
20260905093030 76 336 1.0 2.0 0.00 0.00 0.00 91 1013.9
20260905091711 76 65 1.0 2.0 0.00 0.00 0.00 92 1013.8
20260905091030 76 128 1.0 2.0 0.00 0.00 0.00 91 1013.7
20260905090350 78 53 1.0 1.0 0.00 0.00 0.00 84 1013.7
20260905085711 77 0 0.0 1.0 0.00 0.00 0.00 87 1013.8
20260905085030 77 335 1.0 2.0 0.00 0.00 0.00 90 1013.7
20260905084350 77 213 1.0 2.0 0.00 0.00 0.00 91 1013.8
20260905083711 77 349 0.0 1.0 0.00 0.00 0.00 87 1013.8
20260905083031 75 358 0.0 3.0 0.00 0.00 0.00 95 1013.7
20260905082350 75 350 1.0 3.0 0.00 0.00 0.00 96 1013.8
20260905081710 75 339 3.0 3.0 0.00 0.00 0.00 94 1013.7
20260905081030 77 268 1.0 2.0 0.00 0.00 0.00 89 1013.6
20260905080602 78 175 1.0 2.0 0.00 0.00 0.00 85 1013.5
20260905075923 76 130 1.0 2.0 0.00 0.00 0.00 89 1013.5
20260905075243 78 18 1.0 1.0 0.00 0.00 0.00 84 1013.4
20260905074350 78 6 0.0 1.0 0.00 0.00 0.00 86 1013.5
20260905073925 77 16 1.0 2.0 0.00 0.00 0.00 88 1013.5